Flag for U.S.A. Weather past 2 weeks in Pensacola, Florida, U.S.A.

Now
66 °F

Sunny.


Feels Like: 66 °F
Forecast: 43 / 67 °F
Wind: 13 mph from Southwest

Location: Pensacola Regional Airport

Current Time: Jan 29, 2015 at 5:09:52 PM

Latest Report: Jan 29, 2015 at 3:53 PM


Visibility: 10 mi

Pressure: 30.22 "Hg

Humidity: 63%

Dew point: 53 °F

Location of PensacolaLocation

Historic Weather in Pensacola — Graph

°F

Pensacola temperature yesterday

Maximum temperature yesterday: 64 °F (at 2:53 PM)
Minimum temperature yesterday: 42 °F (at 6:53 AM)
Average temperature yesterday: 51 °F

Past Weeks' High & Low Weather Summary

 TemperatureHumidityPressure
High71 °F (Jan 21, 1:53 PM)100% (Jan 15, 8:53 AM)30.31 "Hg (Jan 15, 8:53 AM)
Low36 °F (Jan 16, 6:53 AM)22% (Jan 18, 2:53 PM)29.79 "Hg (Jan 23, 12:53 PM)
Average52 °F70%30.10 "Hg
* Reported Jan 14 3:53 PM — Jan 29 3:53 PM, Pensacola, Weather by CustomWeather, © 2014

Note: Actual official high and low records may vary slightly from our data, if they occured in-between our weather recording intervals... More about our weather records

Advertising

Pensacola weather history for previous 24 hours

 ConditionsComfort  
Time TempWeatherWind HumidityBarometerVisibility
3:53 PM
Jan 29
66 °FSunny.13 mph63%30.22 "Hg10 mi
2:53 PM67 °FSunny.16 mph57%30.22 "Hg10 mi
1:53 PM67 °FPassing clouds.13 mph57%30.24 "Hg10 mi
12:53 PM68 °FScattered clouds.14 mph55%30.26 "Hg10 mi
11:53 AM66 °FPassing clouds.13 mph56%30.28 "Hg10 mi
10:53 AM65 °FSunny.13 mph59%30.29 "Hg10 mi
9:53 AM64 °FSunny.12 mph63%30.31 "Hg10 mi
8:53 AM56 °FSunny.5 mph77%30.29 "Hg10 mi
7:53 AM50 °FSunny.5 mph86%30.29 "Hg9 mi
6:53 AM46 °FSunny.No wind86%30.30 "Hg7 mi
5:53 AM45 °FSunny.No wind86%30.28 "Hg9 mi
4:53 AM45 °FClear.6 mph86%30.27 "Hg10 mi
3:53 AM47 °FClear.7 mph86%30.26 "Hg10 mi
2:53 AM48 °FClear.5 mph86%30.27 "Hg10 mi
1:53 AM50 °FClear.6 mph83%30.25 "Hg10 mi
12:53 AM50 °FClear.8 mph83%30.23 "Hg10 mi
11:53 PM
Jan 28
50 °FClear.5 mph83%30.24 "Hg10 mi
10:53 PM49 °FClear.6 mph84%30.24 "Hg10 mi
9:53 PM46 °FClear.No wind83%30.27 "Hg10 mi
8:53 PM47 °FClear.No wind77%30.27 "Hg10 mi
7:53 PM48 °FClear.No wind74%30.28 "Hg10 mi
6:53 PM51 °FClear.No wind63%30.27 "Hg10 mi
5:53 PM51 °FClear.3 mph63%30.26 "Hg10 mi
Weather by CustomWeather, © 2014

See weather overviewHow to use our weather pages